Погода в Никиткине

Россия / Самарская область     54°02′58″N   52°24′23″E
темп.,
°C
ветер,
м/с
пор.,
м/с
влажн.,
%
обл.,
%
осадки,
мм/ч
давл.,
гПа
погр.,
м
28 февраля, вс
вс2801:00−4сз4796100 0.4 998161
04:00−11сз359698 0.4 99996
07:00−10ссз479598 0.0 1000203
10:00−10ссз469398 0.1 1002259
13:00−10с589399 0.0 1004360
16:00−11с5891100 0.1 1006435
19:00−14ссз499399 0.0 1009273
22:00−17ссз349573 0.0 101176
1 марта, пн
пн101:00−17ссз369572 0.0 1013133
04:00−19ссз359670 0.0 101690
07:00−21ссз339652 0.0 101731
10:00−18ссз359326 0.0 1020212
13:00−15сз349141 0.0 1020322
16:00−15сз459270 0.0 1022338
19:00−21сз229831 0.0 102120
22:00−22з1210016 0.0 102220
2 марта, вт
вт201:00−22юз2310053 0.0 102020
04:00−22ююз4610067 0.0 101799
07:00−18ю5999100 0.1 1014261
10:00−14ююз71295100 0.4 1011383
13:00−10ююз81394100 1.1 1008531
16:00−7ююз81295100 2.2 1005637
19:00−5ююз61296100 1.4 1002550
22:00−3юз61196100 2.8 1001397
3 марта, ср
ср301:00−2зюз4897100 0.5 999338
04:00−4зюз349898 0.8 100098
07:00−5з3397100 0.1 100086
10:00−3зсз2495100 0.3 1002276
13:00−2зсз359699 0.2 1002419
16:00−2сз579498 0.4 1003565
19:00−7зсз369699 0.1 1003110
22:00−9сз499599 0.2 1005220
4 марта, чт
чт401:00−10сз4109679 0.1 1006238
04:00−10сз5109481 0.1 1008254
07:00−15зсз339742 0.0 101050
10:00−11з479662 0.1 1011258
13:00−7юз6992100 0.0 1010493
16:00−7юз81592100 0.0 1007557
19:00−6юз101793100 0.3 1005749
22:00−3зюз101692100 0.8 1004946